Voltar ao catálogo

METEOR 2-17 DEB

AtivoPO
NORAD 29300·DEBRIS·🇷🇺 Russia

Lançado Jan 30, 1988 de Plesetsk Cosmodrome

Loading…

Próximas Passagens (próximas 24 horas)

TLE

AtualizadoSource: Space-Track

Época: Sep 14, 2026, 02:44 UTC

1 29300U 88005P   26257.11411596  .00002920  00000-0  17548-2 0  9995
2 29300  82.5408 186.1727 0037521  70.7667 289.7559 14.06201446 30215

Acompanhe METEOR 2-17 DEB em tempo real com AllMySat

Download on the App Store